Vorticity
nan nan nan nan nan nan nan nan nan nan nan nan nan nan nan nan nan nan nan nan nan nan nan nan nan nan nan nan nan nan nan nan nan nan nan nan nan nan nan nan nan nan nan nan nan nan nan nan nan nan nan nan nan nan nan nan nan nan nan nan nan nan nan nan nan nan nan nan nan nan nan nan nan nan nan nan nan nan nan nan nan nan nan nan nan nan
nan 9 13 14 8 2 8 14 9 5 4 5 7 9 10 8 8 12 17 16 13 10 10 12 13 14 13 20 25 21 15 12 12 13 14 15 14 13 11 9 8 8 7 6 6 6 5 5 5 5 6 6 7 8 9 10 11 11 10 9 9 8 9 11 12 12 11 10 9 7 6 5 5 7 9 9 8 8 7 6 5 5 5 5 5 nan
nan 9 11 14 12 6 7 12 11 10 8 5 6 8 9 8 7 8 12 15 15 14 11 11 13 16 16 19 27 24 18 16 15 14 13 13 13 13 12 10 10 9 8 7 6 6 5 5 5 5 5 5 6 7 7 9 10 11 11 11 10 8 7 8 8 8 8 8 7 6 6 6 7 9 9 8 7 6 6 5 5 5 5 5 5 nan
nan 11 10 12 14 11 8 9 11 12 12 10 9 9 9 9 9 9 10 11 12 13 14 13 12 13 16 19 26 29 24 18 16 14 12 12 13 13 12 11 11 10 8 7 6 6 5 6 5 5 5 5 5 6 6 6 8 10 11 13 13 12 10 8 7 7 7 6 7 7 7 8 8 8 8 7 6 5 5 6 6 6 6 6 6 nan
nan 12 12 11 12 14 13 10 11 12 12 12 12 11 10 10 10 10 11 12 11 11 13 15 14 11 11 16 23 28 28 22 17 14 13 13 14 14 13 11 11 9 8 7 6 6 6 6 5 5 5 5 5 5 5 5 6 8 10 12 14 14 13 12 11 11 10 8 8 8 8 8 8 7 6 6 5 5 6 6 6 6 6 7 7 nan
nan 12 12 11 11 12 14 12 12 12 11 11 12 12 11 10 10 10 11 12 12 12 12 14 15 13 11 13 19 26 30 27 22 17 15 16 16 15 13 11 10 9 7 6 6 6 6 6 5 5 5 5 5 5 4 4 5 6 8 10 12 12 13 14 14 15 14 11 10 9 8 7 7 6 6 6 6 6 5 6 6 6 6 7 7 nan
nan 11 11 11 10 10 11 11 11 12 11 10 11 11 11 11 11 11 11 11 11 11 11 13 14 14 13 13 16 22 30 32 30 26 22 20 17 15 12 11 10 8 7 7 6 6 7 6 6 5 5 6 6 5 5 4 4 5 6 8 10 11 11 12 13 13 12 10 9 7 7 6 6 6 6 6 6 6 6 6 6 6 6 6 6 nan
nan 8 10 11 9 8 8 9 11 12 11 10 10 9 9 9 11 12 12 11 11 11 11 11 12 13 15 15 16 18 25 31 33 34 33 28 21 16 12 11 9 8 7 7 7 7 7 6 6 6 6 6 6 6 5 4 5 5 5 6 8 9 10 10 10 9 8 7 6 6 6 6 6 6 6 6 6 6 6 6 6 7 6 6 6 nan
nan 6 9 11 10 8 7 8 10 11 11 10 10 9 8 7 8 9 10 10 12 13 13 11 11 12 14 16 16 17 19 24 27 31 31 29 25 22 17 12 9 7 7 7 8 8 8 7 7 7 7 7 7 6 5 5 5 5 5 6 7 9 11 10 9 7 6 5 5 5 6 6 6 7 6 6 6 6 7 7 7 7 6 6 6 nan
nan 7 8 9 10 10 10 10 11 12 12 12 10 10 10 9 8 8 7 7 9 13 15 14 12 11 12 14 16 17 18 22 25 25 22 22 23 21 16 12 12 13 12 9 9 9 9 8 8 8 8 8 8 7 6 6 6 6 6 6 8 10 12 12 10 8 6 5 5 6 6 7 7 7 6 6 6 7 7 8 8 8 7 6 6 nan
nan 10 8 7 8 11 12 12 11 12 14 13 11 10 11 12 10 9 7 6 6 10 12 13 14 13 13 13 15 16 16 18 21 23 20 17 17 15 11 10 14 18 15 11 10 10 10 10 9 9 9 9 9 8 7 8 8 8 8 8 9 12 15 15 12 10 7 6 6 7 7 7 7 7 7 6 6 7 8 9 10 10 9 8 7 nan
nan 11 10 8 7 9 10 11 10 11 13 12 10 10 10 12 12 11 9 8 8 9 8 7 10 13 14 14 14 14 13 13 14 15 16 15 13 9 7 10 13 15 12 10 10 11 11 10 9 8 9 10 9 9 9 9 10 10 9 10 11 14 16 16 14 11 9 8 8 8 8 8 7 7 7 6 6 7 7 9 10 11 12 11 9 nan
nan 10 10 8 7 8 8 8 8 9 10 11 10 9 10 12 13 12 11 10 11 11 8 6 6 9 11 14 15 15 13 11 11 11 12 12 10 8 8 9 10 10 10 9 11 15 15 9 7 7 9 10 11 10 10 11 11 11 11 12 13 15 17 17 15 12 10 9 9 9 8 8 8 7 7 6 6 6 7 8 9 10 12 12 11 nan
nan 9 8 7 7 7 9 8 7 7 7 8 9 10 11 13 14 12 11 11 12 13 12 8 5 6 8 10 13 17 14 10 9 9 10 9 11 11 11 10 10 10 10 10 13 18 16 8 7 10 11 9 9 8 8 10 12 12 12 13 14 15 16 15 14 12 11 10 9 9 8 8 8 8 7 6 6 6 6 6 7 8 10 11 11 nan
nan 9 7 6 7 8 9 9 9 8 8 8 9 11 12 12 12 11 10 10 10 11 10 8 5 5 7 9 11 17 15 10 8 8 7 5 9 13 14 12 10 10 11 11 12 15 11 6 8 12 14 13 10 9 10 11 12 12 12 13 13 14 14 13 12 12 11 10 10 9 8 8 8 8 8 7 6 6 6 6 6 7 7 8 9 nan
nan 10 8 7 6 8 9 9 9 9 10 11 12 12 11 9 10 10 10 10 8 9 8 7 5 4 7 9 11 15 16 12 9 8 4 2 6 13 15 12 9 9 10 10 10 10 8 9 12 14 16 18 15 13 12 13 13 11 11 11 12 12 12 11 11 11 11 10 10 9 8 7 7 8 7 7 6 6 5 5 6 6 6 7 7 nan
nan 9 9 9 7 8 10 10 10 10 11 11 11 11 10 9 9 10 10 10 9 9 9 8 6 5 6 8 11 14 15 14 11 9 4 1 3 10 15 15 11 9 8 9 9 9 10 10 11 14 20 22 17 12 11 13 12 10 10 10 10 10 10 10 10 10 10 10 9 8 7 7 7 7 7 6 6 6 5 6 6 6 6 6 6 nan
nan 9 9 9 8 9 10 11 11 10 10 10 11 11 10 10 10 10 10 9 9 8 9 7 6 6 8 10 13 13 13 14 12 9 4 2 2 8 15 17 13 10 8 8 9 11 11 11 13 17 25 24 15 10 10 11 11 10 9 8 8 9 9 9 9 9 9 9 8 7 7 6 6 6 6 6 6 5 5 6 6 6 6 5 5 nan
nan 9 9 9 9 9 10 10 10 10 9 10 11 11 10 10 10 10 10 9 9 9 8 7 6 6 7 11 14 14 14 13 12 9 5 1 1 6 15 18 14 11 8 7 8 9 11 15 19 22 24 18 12 9 9 9 9 9 8 8 8 8 8 8 8 8 8 8 7 7 6 6 6 6 6 6 6 6 6 6 6 6 6 5 5 nan
nan 9 7 8 10 10 10 11 11 10 10 10 10 10 11 11 11 10 9 9 9 7 8 8 9 8 8 12 14 14 13 11 10 9 6 2 1 3 14 19 13 9 7 6 7 10 13 15 18 21 20 14 12 9 8 8 8 8 7 8 8 8 9 9 9 9 8 8 7 6 6 6 6 6 6 6 6 6 6 6 6 6 6 5 5 nan
nan 11 8 6 7 9 11 14 14 14 12 11 10 9 10 11 11 10 10 10 10 9 8 9 9 8 10 14 15 14 12 9 7 5 5 4 4 5 12 16 13 9 6 5 8 11 13 12 13 19 22 18 13 9 8 7 7 7 7 7 8 8 9 9 9 9 9 8 7 6 7 7 7 7 7 6 6 6 6 6 6 6 6 5 5 nan
nan 11 12 9 6 6 9 15 17 17 14 9 6 5 9 11 10 10 11 11 11 11 10 9 10 10 14 17 17 16 11 6 6 4 6 8 7 6 9 14 13 9 4 5 8 11 12 12 14 21 25 20 13 9 8 8 7 7 7 7 7 8 8 9 9 9 9 8 8 7 7 8 8 7 7 7 7 6 6 6 6 6 6 6 6 nan
nan 7 11 11 9 7 9 14 17 17 14 8 4 3 10 14 12 12 12 12 11 11 10 11 13 14 16 18 16 14 9 7 8 9 10 10 7 5 8 14 13 9 6 7 9 10 11 11 14 20 25 21 12 9 9 8 8 8 8 8 7 7 7 8 8 9 9 9 8 8 8 8 8 8 7 7 7 7 6 7 7 7 6 6 6 nan
nan 9 10 11 11 10 10 12 13 13 12 9 8 9 12 14 15 16 16 15 14 13 11 10 11 12 14 15 13 10 7 7 9 10 10 11 10 8 10 13 12 9 8 8 10 10 9 9 11 15 23 23 15 11 10 10 10 9 8 8 7 7 7 7 8 8 9 9 9 8 8 8 8 7 7 7 7 7 7 7 7 7 7 7 7 nan
nan 10 9 11 12 10 9 10 11 11 10 9 9 10 11 13 14 14 15 15 14 13 11 9 8 8 10 11 9 8 6 7 10 10 9 10 11 10 10 12 11 9 7 7 9 10 9 8 9 11 18 23 20 14 11 11 11 10 9 8 7 7 7 7 8 8 9 9 9 8 8 8 8 7 7 7 7 7 7 8 8 7 7 8 10 nan
nan 4 4 7 11 12 10 9 11 11 6 4 7 8 9 9 9 9 9 11 11 11 8 6 6 6 9 10 10 9 7 6 10 12 12 12 12 10 9 11 12 12 9 8 10 11 11 9 8 9 14 20 22 17 13 11 11 10 9 9 8 8 8 8 8 9 9 9 9 8 8 8 8 8 7 7 7 7 7 7 7 7 7 10 14 nan
nan 2 3 6 10 13 12 11 12 12 7 3 5 5 4 5 6 7 6 8 9 8 5 4 4 6 9 10 11 10 8 6 8 12 15 15 12 9 9 11 13 13 9 8 10 13 12 9 8 8 8 14 20 23 19 12 11 10 10 9 9 9 8 8 9 9 9 9 9 9 9 8 8 8 8 8 7 7 8 7 6 6 7 11 16 nan
nan 8 9 11 13 14 14 13 13 12 10 8 6 -1 -5 -1 4 6 6 9 9 8 6 5 3 6 10 10 9 10 8 6 7 11 14 14 12 10 10 11 12 11 7 6 9 10 10 9 8 7 6 11 17 25 25 16 11 11 11 10 9 9 9 9 9 9 9 9 9 9 9 9 9 9 8 8 8 8 8 7 5 3 3 9 17 nan
nan 16 17 19 19 18 16 14 14 15 13 10 4 -7 -12 -5 3 6 9 10 10 9 7 5 4 6 9 10 9 9 8 8 10 12 12 10 10 10 11 11 10 9 5 4 5 6 7 9 8 7 8 11 13 19 24 21 12 12 15 13 9 8 9 9 9 10 10 9 10 10 10 9 9 9 9 8 8 9 8 6 2 -2 1 10 17 nan
nan 19 22 24 23 22 17 15 18 22 20 12 2 -9 -12 -4 4 8 11 12 10 9 8 7 6 6 8 9 7 8 9 11 12 12 10 8 9 10 12 11 10 8 4 3 4 6 8 9 8 8 9 9 8 10 16 18 15 15 19 19 14 12 11 10 10 10 10 10 10 10 10 10 10 9 9 9 9 9 8 4 -2 -5 2 12 16 nan
nan 16 19 22 22 21 18 16 19 23 24 16 4 -6 -7 -1 5 9 12 12 10 9 8 8 9 9 6 4 5 6 11 14 14 10 7 7 9 13 12 9 9 8 4 3 6 7 9 9 9 8 8 8 7 8 10 13 14 14 17 18 18 21 18 11 9 10 11 11 11 10 10 10 9 9 9 9 9 9 7 2 -3 -3 4 12 14 nan
nan 13 15 17 17 17 15 15 16 18 20 16 9 4 3 4 7 10 12 12 10 9 8 9 11 11 7 3 3 5 11 16 17 11 5 5 10 15 13 9 9 7 4 5 9 10 10 11 12 10 8 8 7 8 8 10 12 14 14 14 17 25 23 12 9 9 13 15 13 11 9 9 9 9 9 9 9 8 7 2 -3 -3 4 11 12 nan
nan 11 13 14 14 13 13 13 13 13 14 13 12 10 9 9 9 9 11 12 11 9 9 10 11 11 9 5 3 4 11 19 21 14 2 0 8 14 15 12 9 7 3 4 10 13 14 16 15 14 11 9 8 8 8 8 10 12 13 12 14 22 21 12 8 10 13 15 15 15 12 9 9 9 8 8 8 7 6 3 -0 -2 3 8 11 nan
nan 11 12 13 12 12 13 12 11 11 11 12 12 10 9 9 10 10 11 11 11 9 9 10 11 11 7 4 4 4 11 22 25 15 -0 -2 7 14 15 11 9 7 3 2 6 11 16 18 16 13 13 12 10 8 9 9 10 10 11 12 12 16 16 11 9 11 13 12 13 16 15 14 15 11 9 9 8 7 5 3 2 1 2 4 8 nan
nan 12 12 12 12 12 12 12 11 10 10 11 12 11 9 8 9 10 11 11 10 8 9 12 12 12 8 4 3 3 10 23 24 13 -1 -3 4 12 14 12 10 8 5 4 4 7 14 18 16 11 11 11 10 10 9 10 10 9 11 12 12 13 13 12 10 11 11 10 10 12 13 15 17 16 15 14 11 9 7 4 3 3 3 3 5 nan
nan 12 12 12 12 12 12 12 10 10 9 10 11 12 10 9 9 9 11 11 10 8 9 12 13 13 12 9 7 7 14 22 22 13 0 -2 5 9 11 14 13 10 6 5 5 6 11 15 15 11 8 7 8 10 10 9 9 9 11 12 12 12 12 13 12 10 10 10 10 10 12 14 15 16 22 23 16 11 8 6 4 3 3 3 3 nan
nan 12 11 11 11 12 12 11 10 10 9 9 11 13 11 9 10 10 12 12 10 9 9 12 13 13 15 17 19 20 23 24 22 15 3 -0 4 6 10 16 17 11 6 6 6 7 9 12 12 10 7 6 7 10 12 10 9 9 11 11 10 11 12 13 13 11 11 11 10 10 11 13 14 16 23 25 16 11 9 7 4 4 4 4 4 nan
nan 11 10 10 10 10 12 12 11 10 10 10 11 13 13 12 13 11 12 14 12 9 9 11 12 12 15 21 26 29 30 27 21 14 4 -1 3 7 10 14 17 12 8 8 8 7 7 9 9 7 6 8 10 13 13 10 9 10 11 10 8 9 12 13 12 11 11 12 11 11 10 10 11 14 18 17 12 10 10 11 11 9 6 5 6 nan
nan 10 10 9 10 10 10 11 11 11 12 13 13 14 15 15 13 11 12 14 13 12 11 12 11 11 13 19 24 26 25 20 15 10 4 -0 2 7 11 13 14 12 9 9 10 9 8 7 7 6 7 9 11 12 13 12 11 10 9 8 8 9 12 13 13 12 11 12 12 9 8 9 10 12 13 13 11 10 11 13 13 11 5 4 9 nan
nan 10 11 11 9 9 9 10 11 12 13 14 15 13 12 11 10 9 9 11 12 12 11 10 10 10 13 17 19 20 17 15 14 9 4 3 5 8 11 12 12 11 9 9 11 12 9 7 10 10 9 9 11 12 13 13 13 12 6 3 8 13 14 12 12 12 11 11 11 8 8 10 11 12 12 11 10 10 10 12 15 14 7 3 6 nan
nan 10 11 12 13 13 12 13 13 13 13 12 11 10 9 9 7 6 7 8 8 8 6 5 5 7 10 13 17 22 20 16 13 7 6 9 9 8 9 12 12 12 10 9 11 13 11 10 11 10 10 12 13 13 13 16 16 12 2 0 7 14 16 12 9 10 11 11 11 11 11 11 11 11 11 9 7 9 12 14 16 15 10 6 7 nan
nan 10 10 11 13 15 16 16 17 15 13 11 10 9 8 7 7 6 7 6 6 7 7 5 5 5 5 7 10 15 19 20 17 14 11 10 9 8 10 12 12 13 12 11 11 12 13 12 11 11 12 11 10 10 15 20 18 13 4 3 7 9 11 12 9 10 11 10 10 13 11 9 10 12 10 6 5 9 14 16 17 14 9 8 9 nan
nan 12 12 12 13 15 16 14 13 12 12 11 11 9 9 9 9 9 7 6 7 8 7 6 7 7 6 5 5 6 10 17 23 23 16 10 10 10 12 13 12 11 10 10 10 11 12 11 10 13 14 13 12 12 13 14 15 13 10 8 5 0 5 15 15 14 12 9 8 9 9 10 11 12 9 6 7 11 15 17 16 12 8 7 9 nan
nan 13 14 14 14 14 12 11 11 12 12 11 10 9 10 12 12 10 7 8 9 8 6 6 7 8 8 8 6 5 6 11 18 23 21 14 11 12 14 14 11 10 9 7 7 8 9 9 10 13 15 14 14 13 12 13 13 12 13 11 7 2 4 13 17 14 11 10 9 9 9 8 8 8 9 10 10 11 12 12 13 14 12 9 8 nan
nan 14 14 14 13 12 10 10 11 11 10 10 10 10 12 13 11 9 8 11 11 9 7 7 5 5 7 8 7 7 8 8 10 14 18 18 15 12 12 12 11 11 9 7 8 8 7 8 9 11 13 14 14 13 12 12 12 12 12 10 7 6 9 14 17 13 11 11 11 11 10 7 7 6 7 9 9 9 11 12 12 12 13 12 10 nan
nan 12 12 13 13 14 11 9 9 10 10 10 8 9 12 13 11 11 11 10 11 10 9 7 5 6 8 9 8 8 9 8 8 8 11 14 14 13 12 12 12 12 11 12 12 12 10 10 10 9 9 11 12 13 14 13 11 11 12 11 7 5 11 16 17 15 12 10 11 13 11 7 6 5 7 8 8 7 9 12 13 12 12 12 12 nan
nan 11 11 11 12 12 12 11 10 10 10 9 9 9 12 12 11 11 12 11 10 10 10 8 8 9 10 9 9 10 10 9 8 8 8 10 11 11 10 11 13 13 14 16 17 16 16 16 15 11 7 6 8 10 13 13 13 12 11 10 8 6 8 13 16 16 12 10 13 15 12 6 5 5 7 7 6 6 6 9 11 13 13 13 13 nan
nan 10 10 10 11 10 11 11 11 11 10 9 9 10 12 13 12 8 10 12 9 10 9 8 9 10 10 11 11 11 11 10 9 8 7 8 8 8 7 8 9 10 12 14 16 16 18 19 19 16 10 6 7 11 13 12 12 11 12 11 9 7 8 11 14 14 13 13 16 15 10 6 7 7 6 5 5 6 7 7 8 9 12 15 14 nan
nan 11 11 11 10 10 10 11 11 11 10 8 8 10 14 17 15 5 6 12 9 9 10 11 9 8 9 11 12 13 11 9 9 9 8 7 7 7 7 8 8 8 7 7 8 9 11 12 13 14 17 16 13 13 13 12 11 11 11 11 10 9 9 11 12 13 13 15 17 14 8 7 9 10 9 7 7 7 6 5 6 7 10 13 14 nan
nan 12 12 11 11 10 10 11 11 11 10 9 8 9 12 14 13 10 9 11 11 10 11 11 9 9 9 11 11 11 9 9 10 10 8 7 9 10 8 8 7 6 4 4 5 7 6 4 5 6 12 19 20 19 15 12 11 10 10 11 11 11 10 11 12 12 12 14 15 14 9 6 8 10 11 12 10 8 5 4 5 5 8 11 13 nan
nan nan nan nan nan nan nan nan nan nan nan nan nan nan nan nan nan nan nan nan nan nan nan nan nan nan nan nan nan nan nan nan nan nan nan nan nan nan nan nan nan nan nan nan nan nan nan nan nan nan nan nan nan nan nan nan nan nan nan nan nan nan nan nan nan nan nan nan nan nan nan nan nan nan nan nan nan nan nan nan nan nan nan nan nan nan
CAPE
nan 0 nan nan nan nan nan nan nan nan nan nan nan nan nan nan nan nan nan nan nan nan nan nan nan nan nan nan nan nan nan nan nan nan nan nan nan nan nan nan nan nan nan nan nan nan nan nan nan nan nan nan nan nan nan 1 1 3 9 21 21 26 36 35 35 32 23 16 11 11 5 nan nan nan nan nan nan nan nan nan nan nan nan nan nan nan
nan nan nan nan nan nan nan nan nan nan nan nan nan nan nan nan nan nan nan nan nan nan nan nan nan nan 0 nan nan nan nan nan nan nan nan nan nan nan nan nan nan nan nan nan nan nan nan nan nan nan nan nan nan nan nan nan nan 1 6 14 14 30 35 33 33 29 15 12 3 3 nan nan nan nan nan nan nan nan nan nan nan nan nan nan nan nan
nan nan nan nan nan nan nan nan nan nan nan nan nan nan nan nan nan nan nan nan nan nan nan nan nan nan 1 nan nan nan nan nan nan nan nan nan nan nan nan nan nan nan nan nan nan nan nan nan nan nan nan nan nan nan nan nan nan nan 1 4 4 13 17 15 15 12 6 2 nan nan nan nan nan nan nan nan nan nan nan nan nan nan nan nan nan nan
nan nan nan nan nan nan nan nan nan nan nan nan nan nan nan nan nan nan nan nan nan 0 0 0 0 0 2 nan nan nan nan nan nan nan nan nan nan nan nan nan nan nan nan nan nan nan nan nan nan nan nan nan nan nan nan nan nan nan nan nan nan nan 0 nan nan 1 0 nan nan nan nan nan nan nan nan nan nan nan nan nan nan nan nan nan nan nan
nan nan nan nan nan nan nan nan nan nan nan nan nan nan nan nan nan nan nan nan nan 0 1 1 1 3 2 1 nan nan nan nan nan nan nan nan nan nan nan nan nan nan nan nan nan nan nan nan nan nan nan nan nan nan nan nan nan nan nan nan nan nan nan nan nan nan nan nan nan nan nan nan nan nan nan nan nan nan nan nan nan nan nan nan nan nan
nan nan nan nan nan nan nan nan nan nan nan nan nan nan nan nan nan nan nan 0 0 0 0 1 1 2 2 3 nan nan nan nan nan nan nan nan nan nan nan nan nan nan nan nan nan nan nan nan nan nan nan nan nan nan nan nan nan nan nan nan nan nan nan nan nan nan nan nan nan nan nan nan nan nan nan nan nan nan nan nan nan nan nan nan nan nan
nan nan nan nan nan nan nan nan nan nan nan nan nan nan nan nan nan nan nan nan nan 0 0 1 1 0 1 nan nan nan nan nan nan nan nan nan nan nan nan nan nan nan nan nan nan nan nan nan nan nan nan nan nan nan nan nan nan nan nan nan nan nan nan nan nan nan nan nan nan nan nan nan nan nan nan nan nan nan nan nan nan nan nan nan nan nan
nan nan nan nan nan nan nan nan nan nan nan nan nan nan nan nan nan nan nan nan nan nan nan nan nan nan 1 1 nan nan nan nan nan nan nan nan nan nan nan nan nan nan nan nan nan nan nan nan nan nan nan nan nan nan nan nan nan nan nan nan nan nan nan nan nan nan nan nan nan nan nan nan nan nan nan nan nan nan nan nan nan nan nan nan nan nan
nan nan nan nan nan nan nan nan nan nan nan nan nan nan nan nan nan nan nan nan nan nan nan nan nan nan nan nan nan nan nan nan nan nan nan nan nan nan nan nan nan nan nan nan nan nan nan nan nan nan nan nan nan nan nan nan nan nan nan nan nan nan nan nan nan nan nan nan nan nan nan nan nan nan nan nan nan nan nan nan nan nan nan nan nan nan
nan nan nan nan nan nan nan nan nan nan nan nan nan nan nan nan nan nan nan nan nan nan nan nan nan nan nan nan nan nan nan nan nan nan nan nan nan nan nan nan nan nan nan nan nan nan nan nan nan nan nan nan nan nan nan nan nan nan nan nan nan nan nan nan nan nan nan nan nan nan nan nan nan nan nan nan nan nan nan nan nan nan nan nan nan nan
nan nan nan nan nan 0 nan nan 0 0 0 nan nan nan nan nan nan nan nan nan nan nan nan nan nan nan nan nan nan nan nan nan nan nan nan nan nan nan nan nan nan nan nan nan nan nan nan nan nan nan nan nan nan nan nan nan nan nan nan nan nan nan nan nan nan nan nan nan nan nan nan nan nan nan nan nan nan nan nan nan nan nan nan nan nan nan
nan nan nan nan nan 0 0 nan 0 0 0 nan nan nan nan nan nan nan nan nan nan nan nan nan nan nan nan nan nan nan nan nan nan nan nan nan nan nan nan nan nan nan nan nan nan nan nan nan nan nan nan nan nan nan nan nan nan nan nan nan nan nan nan nan nan nan nan nan nan nan nan nan nan nan nan nan nan nan nan nan nan nan nan nan nan nan
nan nan nan nan nan nan nan nan nan nan nan nan nan nan nan nan nan nan nan nan nan nan nan nan nan nan nan nan nan nan nan nan nan nan nan nan nan nan nan nan nan nan nan nan nan nan nan nan nan nan nan nan nan nan nan nan nan nan nan nan nan nan nan nan nan nan nan nan nan nan nan nan nan nan nan nan nan nan nan nan nan nan nan nan nan nan
nan nan nan nan nan nan nan nan nan nan nan nan nan nan nan nan nan nan nan nan nan nan nan nan nan nan nan nan nan nan nan nan nan nan nan nan nan nan nan nan nan nan nan nan nan nan nan nan nan nan nan nan nan nan nan nan nan nan nan nan nan nan nan nan nan nan nan nan nan nan nan nan nan nan nan nan nan nan nan nan nan nan nan nan nan nan
nan nan nan nan nan nan nan nan nan nan nan nan nan nan nan nan nan nan nan nan nan nan nan nan nan nan nan nan nan nan nan nan nan nan nan nan nan nan nan nan nan nan nan nan nan nan nan nan nan nan nan 0 nan nan nan nan nan nan nan nan nan nan nan nan nan nan nan nan nan nan nan nan nan nan nan nan nan nan nan nan nan nan nan nan nan nan
nan nan nan nan nan nan nan nan nan nan nan nan nan nan nan nan nan nan nan nan nan nan nan nan nan nan nan nan nan nan nan nan nan nan nan nan nan nan nan nan nan nan nan nan nan nan nan nan nan nan nan nan nan nan nan nan nan nan nan nan nan nan nan nan nan nan nan nan nan nan nan nan nan nan nan nan nan nan nan nan nan nan nan nan nan nan
nan nan nan nan nan nan nan nan nan nan nan nan nan nan nan nan nan nan nan nan nan nan nan nan nan nan nan nan nan nan nan nan nan nan nan nan nan nan nan nan nan nan nan nan nan nan nan nan nan nan nan nan nan nan nan nan nan nan nan nan nan nan nan nan nan nan nan nan nan nan nan nan nan nan nan nan nan nan nan nan nan nan nan nan nan nan
nan nan nan nan nan nan nan nan nan nan nan nan nan nan nan nan nan nan nan nan nan nan nan nan nan nan nan nan nan nan nan nan nan nan nan nan nan nan nan nan nan nan nan nan nan nan nan nan nan nan nan nan nan nan nan nan nan nan nan nan nan nan nan nan nan nan nan nan nan nan nan nan nan nan nan nan nan nan nan nan nan nan nan nan nan nan
nan nan nan nan nan nan nan nan nan nan nan nan nan nan nan nan nan nan nan nan nan nan nan nan nan nan nan nan nan nan nan nan nan nan nan nan nan nan nan nan nan nan nan nan nan nan nan nan nan nan 0 nan nan nan nan nan nan nan nan nan nan nan nan nan nan nan 0 nan nan nan nan nan nan nan nan nan nan nan nan nan nan nan nan nan nan nan
nan nan nan nan nan nan nan nan nan nan nan nan nan nan nan nan nan nan nan nan nan nan nan nan nan nan nan nan nan nan nan nan nan nan nan nan nan nan nan nan nan nan nan nan nan nan nan nan nan nan nan nan nan nan nan nan nan nan nan nan nan nan nan nan nan nan 0 0 nan nan nan nan nan nan nan nan nan nan nan nan nan nan nan nan nan nan
nan nan nan nan nan nan nan nan nan nan nan nan nan nan nan nan nan nan nan nan nan nan nan nan nan nan nan nan nan nan nan nan nan nan nan nan nan nan nan nan nan nan nan nan nan nan nan nan nan nan 0 0 nan nan nan nan nan nan nan nan nan nan nan nan nan nan 0 0 nan nan nan nan nan nan nan nan nan nan nan nan nan nan nan nan nan nan
nan nan nan nan nan nan nan nan nan nan nan nan nan nan nan nan nan nan nan nan nan nan nan nan nan nan nan nan nan nan nan nan nan nan nan nan nan nan nan nan nan nan nan nan nan nan nan nan nan nan nan 2 0 0 nan nan nan nan nan nan nan nan nan nan nan nan nan nan nan nan nan nan nan nan nan nan nan nan nan nan nan nan nan nan nan nan
nan nan nan nan nan nan nan nan nan nan nan nan nan nan nan nan nan nan nan nan nan nan nan nan nan nan nan nan nan nan nan nan nan nan nan nan nan nan nan nan nan nan nan nan nan nan nan nan nan nan 1 3 1 1 nan nan nan nan nan nan nan nan nan nan nan nan nan nan nan nan nan nan nan nan nan nan nan nan nan nan nan nan nan nan nan nan
nan nan nan nan nan nan nan nan nan nan nan nan nan nan nan nan nan nan nan nan nan nan nan nan nan nan nan nan nan nan nan nan nan nan nan nan nan nan nan nan nan nan nan nan nan nan nan nan nan nan nan 2 2 2 0 nan nan nan nan nan nan nan nan nan nan nan nan nan nan nan nan nan nan nan nan nan nan nan nan nan nan nan nan nan nan nan
nan nan nan nan nan nan nan nan nan nan nan nan nan nan nan nan nan nan nan nan nan nan nan nan nan nan nan nan nan nan nan nan nan nan nan nan nan nan nan nan nan nan nan nan nan nan nan nan nan nan nan nan 3 3 2 1 1 0 nan nan nan nan nan nan nan nan nan nan nan nan nan nan nan nan nan nan nan nan nan nan nan nan nan nan nan nan
nan nan nan nan nan nan nan nan nan nan nan nan nan nan nan nan nan nan nan nan nan nan nan nan nan nan nan nan nan nan nan nan nan nan nan nan nan nan nan nan nan nan nan nan nan nan nan nan nan nan nan nan 8 8 4 2 2 1 nan nan nan nan nan nan nan nan nan nan nan nan nan nan nan nan nan nan nan nan nan nan nan nan 1 2 2 1
nan nan nan nan nan nan nan nan nan nan nan nan nan nan nan nan nan nan nan nan nan nan nan nan nan nan nan nan nan nan nan nan nan nan nan nan nan nan nan nan nan nan nan nan nan nan nan nan nan nan nan nan 10 10 10 5 5 3 0 nan nan nan nan nan nan nan nan nan nan nan nan nan nan nan nan nan nan nan nan nan nan 3 5 6 6 4
nan nan nan nan nan nan nan nan nan nan nan nan nan nan nan nan nan nan nan nan nan nan nan nan nan nan nan nan nan nan nan nan nan nan nan nan nan nan nan nan nan nan nan nan nan nan 1 nan nan nan nan nan nan nan 15 8 8 4 1 nan nan nan nan nan nan nan nan nan nan nan nan nan nan nan nan nan nan nan nan 2 2 7 8 8 8 10
nan nan nan nan nan nan nan nan nan nan nan nan nan nan nan nan nan nan nan nan nan nan nan nan nan nan nan nan nan nan nan nan nan nan nan nan nan nan nan nan nan nan nan nan nan nan nan nan nan nan nan nan nan nan 8 15 15 7 3 0 0 nan nan nan nan nan nan nan nan nan nan nan nan nan nan nan nan nan nan 6 6 11 4 nan nan 2
nan nan nan nan nan nan nan nan nan nan nan nan nan nan nan nan nan nan nan nan nan nan nan nan nan nan nan nan nan nan nan nan nan nan nan nan nan nan nan nan nan nan nan nan nan nan nan nan nan nan nan nan nan nan nan 5 5 12 5 1 1 nan nan nan nan nan nan nan nan nan nan nan nan nan nan nan nan nan 2 9 9 8 nan nan nan nan
nan nan nan nan nan nan nan nan nan nan nan nan nan nan nan nan nan nan nan nan nan nan nan nan nan nan nan nan nan nan nan nan nan nan nan nan nan nan nan nan nan nan nan nan nan nan nan nan nan nan nan 0 nan nan nan nan nan nan 1 2 2 nan nan nan nan nan nan nan nan nan nan nan nan nan nan nan 0 0 4 9 9 nan nan nan nan nan
0 nan nan nan nan nan nan nan nan nan nan nan nan nan nan nan nan nan nan nan nan nan nan nan nan nan nan nan nan nan nan nan nan nan nan nan nan nan nan nan nan nan nan nan nan nan nan nan nan nan nan nan nan nan nan nan nan nan nan nan nan nan nan nan nan nan nan 0 0 0 0 nan 0 0 1 1 3 3 8 8 8 nan nan nan nan nan
nan nan nan nan nan nan nan nan nan nan nan nan 0 0 nan nan nan nan nan nan nan nan nan nan nan nan nan nan nan nan nan nan 0 0 nan nan nan nan nan nan nan nan nan nan nan nan nan nan nan nan nan nan nan nan nan nan nan nan nan nan nan nan nan nan nan nan nan 0 1 1 1 0 1 1 1 2 4 4 10 7 7 nan nan nan nan nan
nan nan nan nan nan nan nan nan nan nan nan nan nan nan nan 0 nan nan nan nan nan nan nan nan nan nan nan nan nan nan nan nan 0 0 nan nan nan nan nan nan nan nan nan nan nan nan nan nan nan nan nan nan nan nan nan nan nan nan nan nan nan nan nan nan nan nan nan nan nan nan 0 0 4 4 1 2 7 7 12 6 6 0 0 nan nan nan
nan nan nan nan nan nan nan nan nan nan nan nan nan nan nan nan nan nan nan nan nan nan nan nan nan nan nan nan nan nan nan nan 0 0 nan nan nan nan nan nan nan nan nan nan nan nan nan nan nan 0 nan nan nan nan nan nan nan nan nan nan nan nan nan nan nan nan nan nan nan nan nan nan 0 0 0 2 8 8 12 8 8 nan 0 0 0 nan
nan nan nan nan nan nan nan nan nan nan nan nan nan nan nan nan nan nan nan nan nan nan nan nan nan nan nan nan nan nan nan nan nan nan nan nan nan nan nan nan nan nan nan nan nan nan nan nan nan 0 0 nan nan nan nan nan nan nan nan nan nan nan nan nan nan nan nan nan nan nan nan nan nan nan nan 2 8 8 12 10 10 1 1 0 0 nan
nan nan nan nan nan nan nan nan nan nan nan nan nan nan nan nan nan nan nan nan nan nan nan nan nan nan nan nan nan nan nan nan nan nan nan nan nan nan nan nan nan nan nan nan nan nan nan nan nan nan nan nan nan nan nan nan nan nan nan nan nan nan nan nan nan nan nan nan nan nan nan nan nan nan 0 3 7 7 16 13 13 6 0 1 1 0
nan nan nan nan nan nan nan nan nan nan nan nan nan nan nan nan nan nan nan nan nan nan nan nan nan nan nan nan nan nan nan nan nan nan nan nan nan nan nan nan nan nan nan nan nan nan nan nan nan nan nan nan nan nan nan nan nan nan nan nan nan nan nan nan nan nan nan nan nan nan nan nan nan nan nan 2 4 4 11 12 12 11 2 1 1 0
0 nan nan nan nan nan nan nan nan nan nan nan nan nan nan nan nan nan nan nan nan nan nan nan nan nan nan nan nan nan nan nan nan nan nan nan nan nan nan nan nan nan nan nan nan nan nan nan nan nan nan nan nan nan nan nan nan nan nan nan nan nan nan nan nan nan nan nan nan nan nan nan nan nan nan nan 1 1 5 7 7 8 5 1 1 2
1 0 nan nan nan nan nan nan nan nan nan nan nan nan nan nan nan nan nan nan nan nan nan nan nan nan nan nan nan nan nan nan nan nan nan nan nan nan nan nan nan nan nan nan nan nan nan nan nan nan nan nan nan nan nan nan nan nan nan nan nan nan nan nan nan nan nan nan nan nan nan nan nan nan nan 0 1 1 2 2 2 3 4 1 1 0
9 2 0 nan nan nan nan nan nan nan nan nan nan nan nan nan nan nan nan nan nan nan nan nan nan nan nan nan nan nan nan nan nan nan nan nan nan nan nan nan nan nan nan nan nan nan nan nan nan nan nan nan nan nan nan nan nan 0 0 nan nan nan 0 nan nan nan nan nan nan nan nan nan nan nan 0 1 nan nan 0 0 0 0 3 1 1 1
13 4 1 nan nan nan nan nan nan nan nan nan nan nan nan nan nan nan nan nan nan nan nan nan nan nan nan nan nan nan nan nan nan nan nan nan nan nan nan nan nan nan nan nan nan nan nan nan nan nan nan nan nan nan nan nan nan 0 0 nan nan nan nan 0 0 nan nan nan nan nan nan nan nan nan 1 2 nan nan nan nan nan 1 2 0 0 0
11 6 6 nan nan nan nan nan nan nan nan nan nan nan nan nan nan nan nan nan nan nan nan nan nan nan nan nan nan nan nan nan nan nan nan nan nan nan nan nan nan nan nan nan nan nan nan nan nan nan nan nan nan nan nan nan nan nan nan nan nan nan nan nan nan nan nan nan nan nan nan nan nan nan 0 nan nan nan nan 0 0 4 4 nan nan nan
16 7 nan nan nan nan nan nan nan nan nan nan nan nan nan nan nan nan nan nan nan nan nan nan nan nan nan nan nan nan nan nan nan nan nan nan nan nan nan nan nan nan nan nan nan nan nan nan nan nan nan nan nan nan nan nan nan nan nan nan nan nan nan nan nan nan nan nan nan nan nan nan nan nan nan nan nan nan nan nan nan nan 1 nan nan nan
13 nan nan nan nan nan nan nan nan nan nan nan nan nan nan nan nan nan nan nan nan nan nan nan nan nan nan nan nan nan nan nan nan nan nan nan nan nan nan nan nan nan nan nan nan nan nan nan nan nan nan nan nan nan nan nan nan nan nan nan nan nan nan 0 0 0 nan 0 nan nan nan nan nan nan nan nan nan nan nan nan nan nan nan nan nan nan
4 nan nan nan nan nan nan nan nan nan nan nan nan nan nan nan nan nan nan nan nan nan nan nan nan nan nan nan nan nan nan nan nan nan nan nan nan nan nan nan nan nan nan nan nan nan nan nan nan nan nan nan nan nan nan nan nan nan nan nan nan nan nan nan nan nan 0 nan nan nan nan nan nan nan nan nan nan nan nan nan nan nan nan nan nan nan
nan nan nan nan nan nan nan nan nan nan nan nan nan nan nan nan nan nan nan nan nan nan nan nan nan nan nan nan nan nan nan nan nan nan nan nan nan nan nan nan nan nan nan nan nan nan nan nan nan nan nan nan nan nan nan nan nan nan nan nan nan nan nan nan nan nan nan nan nan nan nan nan nan nan nan nan nan nan nan nan nan nan nan nan nan nan
0 nan nan nan nan nan nan nan nan nan nan nan nan nan nan nan nan nan nan nan nan nan nan nan nan nan nan nan nan nan nan nan nan nan nan nan nan nan nan nan nan nan nan nan nan nan nan nan nan nan nan nan nan nan nan nan nan nan nan nan nan nan nan nan nan nan nan nan nan nan nan nan nan nan nan nan nan nan nan nan nan nan nan nan nan nan
1 nan nan nan nan nan nan nan nan nan nan nan nan nan nan nan nan nan nan nan nan nan nan nan nan nan nan nan nan nan nan nan nan nan nan nan nan nan nan nan nan nan nan nan nan nan nan nan nan nan nan nan nan nan nan nan nan nan nan nan nan nan nan nan nan nan nan nan nan nan nan nan nan nan nan nan nan nan nan nan nan nan nan nan nan nan
nan nan nan nan nan nan nan nan nan nan nan nan nan nan nan nan nan nan nan nan nan nan nan nan nan nan nan nan nan nan nan nan nan nan nan nan nan nan nan nan nan nan nan nan nan nan nan nan nan nan nan nan nan nan nan nan nan nan nan nan nan nan nan nan nan nan nan nan nan nan nan nan nan nan nan nan nan nan nan nan nan nan nan nan nan nan
1 nan nan nan nan nan nan nan nan nan nan nan nan nan nan nan nan nan nan nan nan nan nan nan nan nan nan nan nan nan nan nan nan nan nan nan nan nan nan nan nan nan nan nan nan nan nan nan nan nan nan nan nan nan nan nan nan nan nan nan nan nan nan nan nan nan nan nan nan nan nan nan nan nan nan nan nan nan nan nan nan nan nan nan nan nan